Tracking 27079 objects as of 23-Mar-2023
HD Live streaming from Space Station
objects crossing your sky now

STARLINK-3573

Track STARLINK-3573 now!
10-day predictions
STARLINK-3573 is classified as:


NORAD ID: 51794
Int'l Code: 2022-017AC
Perigee: 546.2 km
Apogee: 547.6 km
Inclination: 53.2 °
Period: 95.4 minutes
Semi major axis: 6917 km
RCS: Unknown
Launch date: February 25, 2022
Source: United States (US)
Launch site: AIR FORCE WESTERN TEST RANGE (AFWTR)
Your satellite tracking list
Your tracking list is empty




NASA's NSSDC Master Catalog

Two Line Element Set (TLE):
1 51794U 22017AC  23081.53587155  .00001855  00000-0  13460-3 0  9997
2 51794  53.2163 171.5842 0001017  89.1477 270.9631 15.08845247 60403
Source of the keplerian elements: AFSPC